User: anonymous   Login
Location: Unspecified
(0.0000°N, 0.0000°E)
Time: 09:59:24
(UTC+00:00)
Language:

YAOGAN 20B - Orbit

View from above orbital plane
View from above orbital plane
View from above satellite
View from above satellite

Ground track
Ground track

The orbit is defined by the following mean orbital elements,

1 40110U          26145.54471090 +.00000000 +00000-0 +87623-4 0 00007
2 40110  63.3790  78.4033 0388128  14.5747 346.6102 13.45437759    09
Epoch (UTC): 25 May 2026 13:04:23
Eccentricity: 0.0388128
inclination: 63.3790°
perigee height: 799 km
apogee height: 1379 km
right ascension of ascending node: 78.4033°
argument of perigee: 14.5747°
revolutions per day: 13.45437759
mean anomaly at epoch: 346.6102°

The dashed part of the orbit path shows where the satellite is in the earth's shadow,  

DLR